Time,TemperatureF,DewpointF,PressureIn,WindDirection,WindDirectionDegrees,WindSpeedMPH,WindSpeedGustMPH,Humidity,HourlyPrecipIn,Conditions,Clouds,dailyrainin,SoftwareType,DateUTC
2013-04-07 00:02:00,48.0,44.0,29.83,South,184,3.0,11.0,87,0.00,,,0.35,,2013-04-07 07:02:00,
2013-04-07 00:11:00,48.0,44.0,29.83,South,184,3.0,11.0,87,0.00,,,0.35,,2013-04-07 07:11:00,
2013-04-07 00:22:00,49.0,45.0,29.83,South,170,0.0,11.0,85,0.00,,,0.35,,2013-04-07 07:22:00,
2013-04-07 00:32:00,49.0,44.0,29.83,West,272,0.0,3.0,84,0.00,,,0.35,,2013-04-07 07:32:00,
2013-04-07 00:42:00,49.0,44.0,29.83,West,272,0.0,3.0,84,0.00,,,0.35,,2013-04-07 07:42:00,
2013-04-07 00:51:00,49.0,44.0,29.81,NNE,26,4.0,7.0,84,0.00,,,0.35,,2013-04-07 07:51:00,
2013-04-07 01:02:00,49.0,44.0,29.82,NE,38,0.0,1.0,84,0.00,,,0.35,,2013-04-07 08:02:00,
2013-04-07 01:11:00,49.0,44.0,29.82,NE,38,0.0,1.0,84,0.00,,,0.35,,2013-04-07 08:11:00,
2013-04-07 01:22:00,49.0,45.0,29.82,NE,38,0.0,2.0,85,0.00,,,0.35,,2013-04-07 08:22:00,
2013-04-07 01:32:00,49.0,45.0,29.82,NNE,14,0.0,2.0,85,0.00,,,0.00,,2013-04-07 08:32:00,
2013-04-07 01:42:00,49.0,45.0,29.82,NNE,14,0.0,2.0,85,0.00,,,0.00,,2013-04-07 08:42:00,
2013-04-07 01:52:00,49.0,45.0,29.81,NNE,14,0.0,2.0,85,0.00,,,0.00,,2013-04-07 08:52:00,
2013-04-07 02:02:00,49.0,45.0,29.81,East,80,0.0,1.0,85,0.00,,,0.00,,2013-04-07 09:02:00,
2013-04-07 02:11:00,49.0,45.0,29.81,East,80,0.0,1.0,85,0.00,,,0.00,,2013-04-07 09:11:00,
2013-04-07 02:22:00,49.0,45.0,29.81,NE,44,0.0,2.0,86,0.00,,,0.00,,2013-04-07 09:22:00,
2013-04-07 02:33:00,49.0,45.0,29.80,North,355,1.0,5.0,86,0.00,,,0.00,,2013-04-07 09:33:00,
2013-04-07 02:42:00,49.0,45.0,29.80,North,355,1.0,5.0,86,0.00,,,0.00,,2013-04-07 09:42:00,
2013-04-07 02:52:00,50.0,46.0,29.80,NW,306,0.0,4.0,85,0.00,,,0.00,,2013-04-07 09:52:00,
2013-04-07 03:03:00,50.0,45.0,29.80,WSW,252,0.0,2.0,84,0.00,,,0.00,,2013-04-07 10:03:00,
2013-04-07 03:22:00,51.0,46.0,29.80,WSW,252,0.0,2.0,82,0.00,,,0.00,,2013-04-07 10:22:00,
2013-04-07 03:32:00,51.0,46.0,29.81,NW,324,0.0,5.0,82,0.00,,,0.00,,2013-04-07 10:32:00,
2013-04-07 03:42:00,51.0,46.0,29.81,NW,324,0.0,5.0,82,0.00,,,0.00,,2013-04-07 10:42:00,
2013-04-07 03:52:00,51.0,45.0,29.81,SSW,193,1.0,6.0,79,0.00,,,0.00,,2013-04-07 10:52:00,
2013-04-07 04:02:00,53.0,44.0,29.81,SW,236,3.0,7.0,72,0.00,,,0.00,,2013-04-07 11:02:00,
2013-04-07 04:11:00,53.0,44.0,29.81,SW,236,3.0,7.0,72,0.00,,,0.00,,2013-04-07 11:11:00,
2013-04-07 04:22:00,53.0,43.0,29.82,SSW,212,1.0,11.0,69,0.00,,,0.00,,2013-04-07 11:22:00,
2013-04-07 04:32:00,54.0,43.0,29.83,NNW,346,4.0,9.0,65,0.00,,,0.00,,2013-04-07 11:32:00,
2013-04-07 04:42:00,54.0,43.0,29.83,NNW,346,4.0,9.0,65,0.00,,,0.00,,2013-04-07 11:42:00,
2013-04-07 04:52:00,54.0,42.0,29.83,SW,228,4.0,10.0,64,0.00,,,0.00,,2013-04-07 11:52:00,
2013-04-07 05:02:00,53.0,42.0,29.85,South,180,2.0,7.0,66,0.00,,,0.00,,2013-04-07 12:02:00,
2013-04-07 05:12:00,53.0,42.0,29.85,South,180,2.0,7.0,66,0.00,,,0.00,,2013-04-07 12:12:00,
2013-04-07 05:22:00,53.0,43.0,29.85,SSW,198,3.0,7.0,69,0.01,,,0.01,,2013-04-07 12:22:00,
2013-04-07 05:33:00,52.0,43.0,29.88,SW,219,2.0,9.0,72,0.01,,,0.01,,2013-04-07 12:33:00,
2013-04-07 05:42:00,52.0,43.0,29.88,SW,219,2.0,9.0,72,0.01,,,0.01,,2013-04-07 12:42:00,
2013-04-07 05:53:00,51.0,44.0,29.88,South,180,1.0,6.0,76,0.01,,,0.01,,2013-04-07 12:53:00,
2013-04-07 06:02:00,50.0,42.0,29.88,South,186,2.0,11.0,75,0.01,,,0.01,,2013-04-07 13:02:00,
2013-04-07 06:12:00,50.0,42.0,29.88,South,186,2.0,11.0,75,0.01,,,0.01,,2013-04-07 13:12:00,
2013-04-07 06:22:00,50.0,42.0,29.88,South,188,0.0,9.0,75,0.00,,,0.01,,2013-04-07 13:22:00,
2013-04-07 06:32:00,50.0,42.0,29.89,SSW,194,0.0,4.0,74,0.00,,,0.01,,2013-04-07 13:32:00,
2013-04-07 06:42:00,50.0,42.0,29.89,SSW,194,0.0,4.0,74,0.00,,,0.01,,2013-04-07 13:42:00,
2013-04-07 06:52:00,49.0,41.0,29.89,SSW,212,2.0,8.0,73,0.00,,,0.01,,2013-04-07 13:52:00,
2013-04-07 07:02:00,49.0,41.0,29.90,SSW,206,1.0,6.0,75,0.00,,,0.01,,2013-04-07 14:02:00,
2013-04-07 07:11:00,49.0,41.0,29.90,SSW,206,1.0,6.0,75,0.00,,,0.01,,2013-04-07 14:11:00,
2013-04-07 07:22:00,49.0,41.0,29.90,SSW,194,1.0,5.0,74,0.00,,,0.01,,2013-04-07 14:22:00,
2013-04-07 07:32:00,49.0,41.0,29.91,SSW,210,1.0,8.0,73,0.00,,,0.01,,2013-04-07 14:32:00,
2013-04-07 07:42:00,49.0,41.0,29.91,SSW,210,1.0,8.0,73,0.00,,,0.01,,2013-04-07 14:42:00,
2013-04-07 07:52:00,49.0,40.0,29.91,SSW,192,1.0,10.0,71,0.00,,,0.01,,2013-04-07 14:52:00,
2013-04-07 08:02:00,48.0,40.0,29.92,SW,236,1.0,9.0,74,0.00,,,0.01,,2013-04-07 15:02:00,
2013-04-07 08:12:00,48.0,40.0,29.92,South,187,1.0,9.0,75,0.00,,,0.01,,2013-04-07 15:12:00,
2013-04-07 08:21:00,48.0,40.0,29.92,South,187,1.0,9.0,75,0.00,,,0.01,,2013-04-07 15:21:00,
2013-04-07 08:33:00,48.0,40.0,29.93,South,184,0.0,7.0,74,0.01,,,0.02,,2013-04-07 15:33:00,
2013-04-07 08:43:00,48.0,40.0,29.93,South,184,0.0,7.0,74,0.01,,,0.02,,2013-04-07 15:43:00,
2013-04-07 08:53:00,48.0,40.0,29.93,South,184,2.0,5.0,74,0.01,,,0.02,,2013-04-07 15:53:00,
2013-04-07 09:03:00,48.0,39.0,29.93,SSW,205,2.0,8.0,72,0.01,,,0.02,,2013-04-07 16:03:00,
2013-04-07 09:12:00,48.0,39.0,29.93,SSW,205,2.0,8.0,72,0.01,,,0.02,,2013-04-07 16:12:00,
2013-04-07 09:23:00,48.0,40.0,29.94,WSW,249,2.0,7.0,73,0.01,,,0.02,,2013-04-07 16:23:00,
2013-04-07 09:33:00,47.0,39.0,29.94,South,172,4.0,9.0,75,0.00,,,0.02,,2013-04-07 16:33:00,
2013-04-07 09:42:00,47.0,39.0,29.94,South,172,4.0,9.0,75,0.00,,,0.02,,2013-04-07 16:42:00,
2013-04-07 09:52:00,48.0,40.0,29.94,WNW,300,1.0,6.0,75,0.00,,,0.02,,2013-04-07 16:52:00,
2013-04-07 10:03:00,48.0,40.0,29.94,South,171,3.0,5.0,73,0.00,,,0.02,,2013-04-07 17:03:00,
2013-04-07 10:12:00,48.0,40.0,29.94,South,171,3.0,5.0,73,0.00,,,0.02,,2013-04-07 17:12:00,
2013-04-07 10:22:00,48.0,39.0,29.94,West,273,2.0,10.0,72,0.00,,,0.02,,2013-04-07 17:22:00,
2013-04-07 10:32:00,49.0,40.0,29.94,West,274,3.0,12.0,71,0.00,,,0.02,,2013-04-07 17:32:00,
2013-04-07 10:42:00,49.0,40.0,29.94,West,274,3.0,12.0,71,0.00,,,0.02,,2013-04-07 17:42:00,
2013-04-07 10:52:00,48.0,40.0,29.95,South,180,0.0,7.0,73,0.00,,,0.02,,2013-04-07 17:52:00,
2013-04-07 11:02:00,47.0,40.0,29.96,SW,225,1.0,10.0,76,0.00,,,0.02,,2013-04-07 18:02:00,
2013-04-07 11:12:00,47.0,40.0,29.96,SW,225,1.0,10.0,76,0.00,,,0.02,,2013-04-07 18:12:00,
2013-04-07 11:22:00,47.0,39.0,29.96,SW,227,3.0,9.0,75,0.00,,,0.02,,2013-04-07 18:22:00,
2013-04-07 11:32:00,47.0,39.0,29.96,SW,215,4.0,8.0,74,0.00,,,0.02,,2013-04-07 18:32:00,
2013-04-07 11:42:00,47.0,39.0,29.96,SW,215,4.0,8.0,74,0.00,,,0.02,,2013-04-07 18:42:00,
2013-04-07 11:52:00,47.0,40.0,29.97,WNW,298,1.0,8.0,77,0.01,,,0.03,,2013-04-07 18:52:00,
2013-04-07 12:02:00,49.0,42.0,29.97,SSW,195,1.0,5.0,78,0.01,,,0.03,,2013-04-07 19:02:00,
2013-04-07 12:11:00,49.0,42.0,29.97,SSW,195,1.0,5.0,78,0.01,,,0.03,,2013-04-07 19:11:00,
2013-04-07 12:21:00,50.0,41.0,29.96,South,190,3.0,11.0,71,0.01,,,0.03,,2013-04-07 19:21:00,
2013-04-07 12:32:00,49.0,39.0,29.96,SW,222,0.0,7.0,69,0.01,,,0.03,,2013-04-07 19:32:00,
2013-04-07 12:42:00,49.0,39.0,29.96,SW,222,0.0,7.0,69,0.01,,,0.03,,2013-04-07 19:42:00,
2013-04-07 12:52:00,48.0,39.0,29.95,South,186,1.0,4.0,72,0.00,,,0.03,,2013-04-07 19:52:00,
2013-04-07 13:02:00,47.0,40.0,29.96,South,181,0.0,6.0,77,0.01,,,0.04,,2013-04-07 20:02:00,
2013-04-07 13:12:00,47.0,40.0,29.96,South,181,0.0,6.0,77,0.01,,,0.04,,2013-04-07 20:12:00,
2013-04-07 13:22:00,48.0,42.0,29.95,SW,232,1.0,4.0,79,0.01,,,0.04,,2013-04-07 20:22:00,
2013-04-07 13:32:00,50.0,40.0,29.94,South,185,4.0,13.0,68,0.01,,,0.04,,2013-04-07 20:32:00,
2013-04-07 13:42:00,50.0,40.0,29.94,South,185,4.0,13.0,68,0.01,,,0.04,,2013-04-07 20:42:00,
2013-04-07 13:52:00,51.0,40.0,29.93,South,175,4.0,7.0,66,0.01,,,0.04,,2013-04-07 20:52:00,
2013-04-07 14:02:00,49.0,40.0,29.93,SE,134,2.0,10.0,71,0.01,,,0.05,,2013-04-07 21:02:00,
2013-04-07 14:11:00,49.0,40.0,29.93,SE,134,2.0,10.0,71,0.01,,,0.05,,2013-04-07 21:11:00,
2013-04-07 14:22:00,47.0,40.0,29.94,SW,228,4.0,8.0,77,0.02,,,0.06,,2013-04-07 21:22:00,
2013-04-07 14:33:00,46.0,40.0,29.94,South,171,2.0,8.0,79,0.04,,,0.08,,2013-04-07 21:33:00,
2013-04-07 14:43:00,46.0,40.0,29.94,South,171,2.0,8.0,79,0.04,,,0.08,,2013-04-07 21:43:00,
2013-04-07 14:52:00,46.0,41.0,29.93,South,175,1.0,8.0,81,0.04,,,0.08,,2013-04-07 21:52:00,
2013-04-07 15:03:00,48.0,42.0,29.93,South,180,0.0,5.0,81,0.03,,,0.08,,2013-04-07 22:03:00,
2013-04-07 15:13:00,48.0,42.0,29.93,South,180,0.0,5.0,81,0.03,,,0.08,,2013-04-07 22:13:00,
2013-04-07 15:22:00,48.0,41.0,29.93,SSE,155,1.0,4.0,77,0.02,,,0.08,,2013-04-07 22:22:00,
2013-04-07 15:33:00,49.0,42.0,29.92,SSW,198,0.0,4.0,78,0.00,,,0.08,,2013-04-07 22:33:00,
2013-04-07 15:42:00,49.0,42.0,29.92,SSW,198,0.0,4.0,78,0.00,,,0.08,,2013-04-07 22:42:00,
2013-04-07 15:52:00,49.0,41.0,29.91,SSW,196,0.0,3.0,74,0.00,,,0.08,,2013-04-07 22:52:00,
2013-04-07 16:03:00,49.0,41.0,29.92,South,177,0.0,3.0,73,0.00,,,0.08,,2013-04-07 23:03:00,
2013-04-07 16:12:00,49.0,41.0,29.92,South,177,0.0,3.0,73,0.00,,,0.08,,2013-04-07 23:12:00,
2013-04-07 16:22:00,49.0,41.0,29.91,South,172,1.0,5.0,73,0.00,,,0.08,,2013-04-07 23:22:00,
2013-04-07 16:32:00,48.0,41.0,29.91,South,184,1.0,4.0,76,0.01,,,0.09,,2013-04-07 23:32:00,
2013-04-07 16:42:00,48.0,41.0,29.91,South,184,1.0,4.0,76,0.01,,,0.09,,2013-04-07 23:42:00,
2013-04-07 16:52:00,47.0,40.0,29.92,South,183,2.0,9.0,76,0.02,,,0.10,,2013-04-07 23:52:00,
2013-04-07 17:02:00,45.0,39.0,29.92,SSW,208,1.0,8.0,78,0.03,,,0.11,,2013-04-08 00:02:00,
2013-04-07 17:12:00,45.0,39.0,29.92,SSW,208,1.0,8.0,78,0.03,,,0.11,,2013-04-08 00:12:00,
2013-04-07 17:22:00,45.0,39.0,29.92,SSE,148,2.0,5.0,79,0.04,,,0.12,,2013-04-08 00:22:00,
2013-04-07 17:32:00,44.0,38.0,29.92,South,182,1.0,8.0,79,0.04,,,0.13,,2013-04-08 00:32:00,
2013-04-07 17:42:00,44.0,38.0,29.92,South,182,1.0,8.0,79,0.04,,,0.13,,2013-04-08 00:42:00,
2013-04-07 17:52:00,44.0,38.0,29.92,South,183,0.0,6.0,79,0.03,,,0.13,,2013-04-08 00:52:00,
2013-04-07 18:02:00,43.0,37.0,29.92,South,175,2.0,6.0,80,0.03,,,0.14,,2013-04-08 01:02:00,
2013-04-07 18:12:00,43.0,37.0,29.92,South,175,2.0,6.0,80,0.03,,,0.14,,2013-04-08 01:12:00,
2013-04-07 18:22:00,43.0,38.0,29.92,SSW,194,0.0,2.0,81,0.03,,,0.15,,2013-04-08 01:22:00,
2013-04-07 18:32:00,43.0,38.0,29.91,South,190,0.0,3.0,82,0.04,,,0.16,,2013-04-08 01:32:00,
2013-04-07 18:42:00,43.0,38.0,29.91,South,190,0.0,3.0,82,0.04,,,0.16,,2013-04-08 01:42:00,
2013-04-07 18:53:00,42.0,37.0,29.91,South,190,0.0,2.0,82,0.04,,,0.17,,2013-04-08 01:53:00,
2013-04-07 19:02:00,42.0,37.0,29.91,South,190,0.0,0.0,83,0.04,,,0.17,,2013-04-08 02:02:00,
2013-04-07 19:12:00,42.0,37.0,29.91,South,190,0.0,0.0,83,0.04,,,0.17,,2013-04-08 02:12:00,
2013-04-07 19:21:00,42.0,37.0,29.91,South,190,0.0,0.0,83,0.03,,,0.18,,2013-04-08 02:21:00,
2013-04-07 19:32:00,42.0,37.0,29.91,South,190,0.0,0.0,83,0.03,,,0.19,,2013-04-08 02:32:00,
2013-04-07 19:43:00,42.0,37.0,29.91,South,190,0.0,0.0,83,0.03,,,0.19,,2013-04-08 02:43:00,
2013-04-07 19:52:00,42.0,38.0,29.92,South,190,0.0,0.0,84,0.03,,,0.20,,2013-04-08 02:52:00,
2013-04-07 20:04:00,41.0,36.0,29.92,ESE,105,1.0,4.0,83,0.04,,,0.22,,2013-04-08 03:04:00,
2013-04-07 20:12:00,41.0,36.0,29.92,ESE,105,1.0,4.0,83,0.04,,,0.22,,2013-04-08 03:12:00,
2013-04-07 20:22:00,41.0,36.0,29.92,SSE,150,0.0,6.0,83,0.06,,,0.24,,2013-04-08 03:22:00,
2013-04-07 20:33:00,40.0,35.0,29.93,SSE,150,0.0,0.0,83,0.06,,,0.25,,2013-04-08 03:33:00,
2013-04-07 20:43:00,40.0,35.0,29.93,SSE,150,0.0,0.0,83,0.06,,,0.25,,2013-04-08 03:43:00,
2013-04-07 20:53:00,40.0,35.0,29.94,SSE,150,0.0,0.0,83,0.06,,,0.26,,2013-04-08 03:53:00,
2013-04-07 21:02:00,40.0,36.0,29.94,SSE,150,0.0,0.0,84,0.05,,,0.27,,2013-04-08 04:02:00,
2013-04-07 21:12:00,40.0,36.0,29.94,SSE,150,0.0,0.0,84,0.05,,,0.27,,2013-04-08 04:12:00,
2013-04-07 21:23:00,40.0,36.0,29.95,SSE,150,0.0,0.0,84,0.04,,,0.28,,2013-04-08 04:23:00,
2013-04-07 21:33:00,40.0,36.0,29.95,SSE,150,0.0,0.0,84,0.05,,,0.30,,2013-04-08 04:33:00,
2013-04-07 21:43:00,40.0,36.0,29.95,SSE,150,0.0,0.0,84,0.05,,,0.30,,2013-04-08 04:43:00,
2013-04-07 21:52:00,40.0,36.0,29.96,SSE,150,0.0,2.0,85,0.04,,,0.30,,2013-04-08 04:52:00,
2013-04-07 22:02:00,40.0,36.0,29.96,SSE,150,0.0,2.0,85,0.04,,,0.31,,2013-04-08 05:02:00,
2013-04-07 22:12:00,40.0,36.0,29.96,SSE,150,0.0,2.0,85,0.04,,,0.31,,2013-04-08 05:12:00,
2013-04-07 22:21:00,40.0,36.0,29.96,SSE,150,0.0,2.0,85,0.04,,,0.31,,2013-04-08 05:21:00,
2013-04-07 22:32:00,40.0,36.0,29.98,SSE,150,0.0,0.0,85,0.02,,,0.32,,2013-04-08 05:32:00,
2013-04-07 22:42:00,40.0,36.0,29.98,SSE,150,0.0,0.0,85,0.03,,,0.33,,2013-04-08 05:42:00,
2013-04-07 22:51:00,40.0,36.0,29.98,SSE,150,0.0,0.0,85,0.03,,,0.33,,2013-04-08 05:51:00,
2013-04-07 23:02:00,40.0,36.0,29.99,SSE,167,0.0,2.0,85,0.05,,,0.36,,2013-04-08 06:02:00,
2013-04-07 23:12:00,40.0,36.0,29.99,SSE,167,0.0,2.0,85,0.05,,,0.36,,2013-04-08 06:12:00,
2013-04-07 23:21:00,40.0,36.0,29.98,South,171,0.0,2.0,85,0.06,,,0.37,,2013-04-08 06:21:00,
2013-04-07 23:32:00,40.0,36.0,29.99,South,171,0.0,0.0,85,0.05,,,0.37,,2013-04-08 06:32:00,
2013-04-07 23:42:00,40.0,36.0,29.99,South,171,0.0,0.0,85,0.05,,,0.37,,2013-04-08 06:42:00,
2013-04-07 23:52:00,40.0,36.0,29.99,South,171,0.0,0.0,85,0.04,,,0.37,,2013-04-08 06:52:00,